Date,TemperatureHighF,TemperatureAvgF,TemperatureLowF,DewpointHighF,DewpointAvgF,DewpointLowF,HumidityHigh,HumidityAvg,HumidityLow,PressureMaxIn,PressureMinIn,WindSpeedMaxMPH,WindSpeedAvgMPH,GustSpeedMaxMPH,PrecipitationSumIn
2013-1-1,83.0,74.9,70.0,68.0,62.3,57.0,79,66,46,0.00,40.00,7,4,16,0.00
2013-1-2,79.0,75.7,72.0,66.0,59.4,49.0,73,58,39,0.00,40.00,13,6,25,0.00
2013-1-3,79.0,75.2,71.0,67.0,60.5,52.0,71,61,46,0.00,40.00,9,5,20,0.00
2013-1-4,82.0,75.9,71.0,68.0,59.6,54.0,71,58,43,0.00,40.00,23,8,46,0.00
2013-1-5,83.0,77.5,75.0,61.0,50.9,35.0,55,40,21,0.00,40.00,24,16,45,0.00
2013-1-6,78.0,75.6,70.0,64.0,56.6,35.0,67,53,21,0.00,40.00,17,7,34,0.00
2013-1-7,79.0,75.0,72.0,64.0,58.9,53.0,64,57,50,0.00,40.00,16,8,33,0.00
2013-1-8,79.0,74.9,70.0,64.0,57.6,49.0,70,56,40,0.00,40.00,16,7,38,0.00
2013-1-9,78.0,74.9,71.0,63.0,59.8,56.0,68,60,51,0.00,40.00,19,6,36,0.00
2013-1-10,80.0,75.1,72.0,64.0,58.5,52.0,68,57,43,0.00,40.00,19,8,36,0.00
2013-1-11,80.0,74.7,68.0,64.0,58.1,50.0,69,57,35,0.00,40.00,7,4,23,0.00
2013-1-12,77.0,73.2,68.0,65.0,59.1,50.0,70,61,50,0.00,40.00,7,4,12,0.00
2013-1-13,79.0,73.9,69.0,66.0,59.2,51.0,76,61,46,0.00,40.00,8,4,16,0.00
2013-1-14,79.0,74.2,68.0,68.0,62.3,54.0,82,67,56,0.00,40.00,8,4,18,0.01
2013-1-15,77.0,74.2,70.0,69.0,65.9,64.0,90,75,65,0.00,40.00,7,3,15,0.01
2013-1-16,79.0,74.2,69.0,66.0,61.9,56.0,81,66,53,0.00,40.00,9,4,14,0.00
2013-1-17,77.0,71.4,65.0,62.0,56.9,50.0,70,60,51,0.00,40.00,9,5,14,0.00
2013-1-18,78.0,72.1,66.0,61.0,56.5,50.0,67,58,49,0.00,40.00,7,5,12,0.00
2013-1-19,84.0,73.6,66.0,55.0,45.6,33.0,61,39,17,0.00,40.00,9,5,24,0.00
2013-1-20,81.0,72.3,64.0,58.0,47.9,36.0,59,43,31,0.00,40.00,8,4,14,0.00
2013-1-21,79.0,71.6,64.0,63.0,57.5,52.0,69,61,48,0.00,40.00,7,4,14,0.00
2013-1-22,79.0,73.8,69.0,63.0,58.3,54.0,66,59,45,0.00,40.00,8,4,19,0.00
2013-1-23,81.0,73.0,67.0,64.0,58.3,52.0,69,61,38,0.00,40.00,17,6,31,0.00
2013-1-24,78.0,73.2,68.0,64.0,59.2,51.0,69,61,49,0.00,40.00,9,5,15,0.00
2013-1-25,78.0,72.9,67.0,64.0,59.7,54.0,72,63,55,0.00,40.00,8,4,12,0.00
2013-1-26,78.0,73.3,68.0,64.0,59.2,52.0,74,62,51,0.00,40.00,8,4,13,0.00
2013-1-27,78.0,73.1,68.0,62.0,56.4,50.0,62,56,43,0.00,40.00,9,6,15,0.00
2013-1-28,79.0,73.4,69.0,65.0,58.9,54.0,66,61,48,0.00,40.00,8,4,14,0.00
2013-1-29,78.0,72.7,69.0,67.0,61.9,55.0,91,69,55,0.00,40.00,6,4,12,0.03
2013-1-30,77.0,72.0,67.0,67.0,64.6,62.0,95,78,61,0.00,40.00,8,4,15,0.15
2013-1-31,78.0,73.9,67.0,67.0,63.2,59.0,78,69,60,0.00,40.00,6,4,9,0.02